Regional Weather Roundup
Issued by NWS

Home | Current Version | Previous Version | Text Only | Print | Product List | Glossary On
Versions: 1 2 3 4 5 6 7 8 9 10 11 12 13 14 15 16 17 18 19 20 21 22 23 24 25 26 27 28 29 30 31 32 33 34 35 36 37 38 39 40 41 42 43 44 45 46 47 48 49 50
000
ASUS44 KEWX 251203
RWRTX
SOUTH TEXAS REGIONAL WEATHER ROUNDUP
NATIONAL WEATHER SERVICE AUSTIN/SAN ANTONIO TX
700 AM CDT SAT APR 25 2015

NOTE: "FAIR" INDICATED FEW OR NO CLOUDS BELOW 12,000 FEET WITH NO
SIGNIFICANT WEATHER AND/OR OBSTRUCTIONS TO VISIBILITY.

* - THESE STATIONS ARE NOT NWS OR FAA STATIONS...AND ARE NOT SUBJECT
    TO NWS AND FAA QUALITY CONTROL.

TXZ171-172-183>190-251300-
TEXAS HILL COUNTRY AND EDWARDS PLATEAU

CITY           SKY/WX    TMP DP  RH WIND       PRES   REMARKS
JUNCTION       FOG       62  62 100 SW3       29.85R VSB 1/4
6HR MIN TEMP:  62; 6HR MAX TEMP:  65;

*LLANO         PTCLDY    64  64 100 CALM      29.84R FOG
BURNET         PTCLDY    67  66  97 W3        29.82S FOG
6HR MIN TEMP:  67; 6HR MAX TEMP:  70;

*HORSESHOE BAY   N/A     67  67  99 CALM      29.81R FOG
6HR MIN TEMP:  67; 6HR MAX TEMP:  73;

*KERRVILLE     FOG       66  65  96 CALM      29.83S VSB 1/4
6HR MIN TEMP:  66; 6HR MAX TEMP:  72; 6HR PCP:  0.04;

*FREDERICKSBRG FOG       65  64  97 SW5       29.83R VSB 1/2
*ROCKSPRINGS   CLEAR     66  63  88 NW7       29.88R
*BOERNE STAGE  CLOUDY    64  63  94 SW5       29.84S
*CASTROVILLE   TSTM      65  65  99 CALM      29.83R
HONDO          NOT AVBL
*UVALDE        NOT AVBL
DEL RIO        CLEAR     69  68  96 NW3       29.82R FOG
6HR MIN TEMP:  69; 6HR MAX TEMP:  74; 6HR PCP:  0.25;

LAUGHLIN AFB   CLEAR     68  63  83 N1        29.82R HAZE
CARRIZO SPRGS  CLOUDY    68  63  83 E5        29.78R
$$

TXZ173-191>194-202-209-217>225-228-251300-
CENTRAL AND SOUTH CENTRAL TEXAS

CITY           SKY/WX    TMP DP  RH WIND       PRES   REMARKS
GEORGETOWN     PTCLDY    73  70  88 SW5       29.78R FOG
AUSTIN/BERGSTM CLOUDY    68  67  96 VRB3      29.79R
6HR MIN TEMP:  68; 6HR MAX TEMP:  75; 6HR PCP:  0.06;

AUSTIN/MABRY   CLOUDY    72  71  97 CALM      29.79F FOG
6HR MIN TEMP:  72; 6HR MAX TEMP:  75; 6HR PCP:  0.04;

*AUSTIN/EXEC   CLOUDY    72  72 100 S7        29.78F FOG
*LAGO VISTA    CLOUDY    73  71  94 SW3       29.81S FOG
6HR MIN TEMP:  73; 6HR MAX TEMP:  76;

SAN MARCOS     MOCLDY    64  63  94 SW6       29.79S
NEW BRAUNFELS  LGT RAIN  66  66 100 S6        29.78R
6HR MIN TEMP:  65; 6HR MAX TEMP:  76; 6HR PCP:  0.95;

RANDOLPH AFB   DRIZZLE   64  64 100 SE5       29.80R
6HR MIN TEMP:  63; 6HR MAX TEMP:  74; 6HR PCP:  2.33;

PT SAN ANTONIO TSTM      66  66 100 VRB3      29.81R FOG
SAN ANTONIO    CLOUDY    66  64  93 VRB3      29.81R
6HR MIN TEMP:  65; 6HR MAX TEMP:  74; 6HR PCP:  2.20;

STINSON FIELD  CLOUDY    66  65  96 CALM      29.78R
6HR MIN TEMP:  65; 6HR MAX TEMP:  74; 6HR PCP:  0.96;

*PLEASANTON    MOCLDY    66  64  94 E6        29.78F
6HR MIN TEMP:  66; 6HR MAX TEMP:  75;

*LA GRANGE     CLOUDY    67  65  91 S8        29.80R
*GIDDINGS      RAIN      69  66  91 S10G18    29.87R
6HR MIN TEMP:  69; 6HR MAX TEMP:  76; 6HR PCP:  0.08;

*GONZALES      TSTM     N/A N/A N/A SE3       29.80F
$$

TXZ163>164-176>182-195>201-210>213-226-227-235-251300-
SOUTHEAST TEXAS

CITY           SKY/WX    TMP DP  RH WIND       PRES   REMARKS
COLLEGE STN    LGT RAIN  74  72  93 S13       29.77R FOG
6HR MIN TEMP:  73; 6HR MAX TEMP:  76; 6HR PCP:  0.09;

*BRYAN         TSTM      73  73  97 W7        29.80S
6HR MIN TEMP:  73; 6HR MAX TEMP:  74; 6HR PCP:  0.04;

*CALDWELL      LGT RAIN  72  72 100 S8        29.80F
*CROCKETT      NOT AVBL
*BRENHAM       TSTM      72  66  83 SW6       29.82R
6HR MIN TEMP:  71; 6HR MAX TEMP:  78;

HUNTSVILLE     LGT RAIN  74  73  97 S6        29.78R FOG
6HR MIN TEMP:  74; 6HR MAX TEMP:  76; 6HR PCP: TRACE;

CONROE         LGT RAIN  74  70  87 NW5       29.73F
6HR MIN TEMP:  73; 6HR MAX TEMP:  76; 6HR PCP:  0.05;

HOUSTON BUSH   RAIN      76  73  91 N9        29.74R
6HR MIN TEMP:  76; 6HR MAX TEMP:  78; 6HR PCP:  0.02;

HOUSTON HOBBY  LGT RAIN  76  74  93 CALM      29.77R
6HR MIN TEMP:  76; 6HR MAX TEMP:  77; 6HR PCP:  0.01;

*HOUSTON SW AP LGT RAIN  73  73 100 CALM      29.80R
6HR MIN TEMP:  73; 6HR MAX TEMP:  76;

PEARLAND       LGT RAIN  76  74  93 N3        29.80R FOG
6HR MIN TEMP:  76; 6HR MAX TEMP:  78; 6HR PCP:  0.01;

HOUSTON HOOKS  LGT RAIN  75  72  90 NW7       29.75S
6HR MIN TEMP:  75; 6HR MAX TEMP:  78; 6HR PCP:  0.07;

ELLINGTON FLD  MOCLDY    75  73  94 CALM      29.80R FOG
SUGAR LAND     CLOUDY    75  73  93 SW5       29.80R FOG
6HR MIN TEMP:  75; 6HR MAX TEMP:  78; 6HR PCP: TRACE;

*HOUSTON EXEC  CLOUDY    75  70  83 NW33G51   29.85R HAZE
*CLEVELAND MUN TSTM      74  73  96 NW8       29.76R
*WHARTON       RAIN      73  70  91 NW5       29.83R
6HR MIN TEMP:  70; 6HR MAX TEMP:  75; 6HR PCP:  0.03;

*COLUMBUS      RAIN      66  62  87 N25G41    29.83R
$$

TXZ214>216-236>238-251300-
THE UPPER TEXAS COAST

CITY           SKY/WX    TMP DP  RH WIND       PRES   REMARKS
*ORANGE        CLOUDY    74  72  91 W3        29.78R FOG
6HR MIN TEMP:  74; 6HR MAX TEMP:  76; 6HR PCP:  0.01;

PORT ARTHUR    CLOUDY    75  74  96 W5        29.77R FOG
6HR MIN TEMP:  74; 6HR MAX TEMP:  76; 6HR PCP:  0.05;

GALVESTON      CLOUDY    76  74  93 CALM      29.76R
6HR MIN TEMP:  75; 6HR MAX TEMP:  77; 6HR PCP:  0.03;

ANGLETON       CLOUDY    72  71  97 N7        29.75R
6HR MIN TEMP:  71; 6HR MAX TEMP:  75; 6HR PCP:  0.01;

*BAY CITY      PTCLDY    72  71  97 CALM      29.78R
PALACIOS       PTCLDY    77  74  90 S6        29.76R
6HR MIN TEMP:  74; 6HR MAX TEMP:  78; 6HR PCP: TRACE;

$$

TXZ229>234-239>247-251300-
TEXAS COASTAL BEND AND RIO GRANDE PLAINS

CITY           SKY/WX    TMP DP  RH WIND       PRES   REMARKS
VICTORIA       CLOUDY    75  75 100 NW15      29.82R FOG
6HR MIN TEMP:  72; 6HR MAX TEMP:  76; 6HR PCP: TRACE;

*BEEVILLE      CLOUDY    74  74 100 N6        29.77R FOG
6HR MIN TEMP:  72; 6HR MAX TEMP:  76;

ROCKPORT       MOCLDY    76  73  91 S5        29.72R FOG
6HR MIN TEMP:  75; 6HR MAX TEMP:  78; 6HR PCP: TRACE;

*PORT ARANSAS  CLOUDY    75  74  96 S6        29.72R FOG
6HR MIN TEMP:  75; 6HR MAX TEMP:  76; 6HR PCP:  0.05;

*PORT LAVACA   PTCLDY    73  73 100 CALM      29.75R FOG
*INGLESIDE     MOCLDY    77  74  88 S5        29.71R FOG
CORPUS CHRISTI MOCLDY    74  71  91 S5        29.71R
6HR MIN TEMP:  74; 6HR MAX TEMP:  79; 6HR PCP:  0.01;

CORPUS NAS     CLOUDY    76  74  93 S7        29.71R
6HR MIN TEMP:  75; 6HR MAX TEMP:  77; 6HR PCP:  0.01;

*ROBSTOWN      MOCLDY    75  74  95 MISG      29.71R
ALICE          CLOUDY    76  72  87 S8        29.70R
6HR MIN TEMP:  75; 6HR MAX TEMP:  79; 6HR PCP:  0.02;

KINGSVILLE NAS MOCLDY    73  73 100 S6        29.70R
6HR MIN TEMP:  74; 6HR MAX TEMP:  80; 6HR PCP:  0.01;

COTULLA        CLOUDY    70  64  81 NE8       29.78R
6HR MIN TEMP:  68; 6HR MAX TEMP:  76;

*FAITH RANCH   CLOUDY    72  72 100 NE9       29.80R FOG
LAREDO         MOCLDY    76  76 100 W6        29.77R FOG
6HR MIN TEMP:  75; 6HR MAX TEMP:  80;

$$

TXZ248>255-251300-
DEEP SOUTH TEXAS

CITY           SKY/WX    TMP DP  RH WIND       PRES   REMARKS
BROWNSVILLE    CLOUDY    79  77  94 SE8       29.71R FOG
6HR MIN TEMP:  76; 6HR MAX TEMP:  80; 6HR PCP:  0.04;

PORT ISABEL    CLOUDY    78  75  90 S8        29.69R FOG
6HR MIN TEMP:  73; 6HR MAX TEMP:  79; 6HR PCP:  0.12;

*SOUTH PADRE     N/A    N/A N/A N/A MISG        N/A
HARLINGEN      CLOUDY    78  77  96 SE8       29.69S FOG
6HR MIN TEMP:  73; 6HR MAX TEMP:  80; 6HR PCP: TRACE;

*HEBBRONVILLE    N/A     75  74  97 S6        29.73R FOG
MCALLEN        CLOUDY    80  76  87 SE5       29.70S FOG
6HR MIN TEMP:  75; 6HR MAX TEMP:  80; 6HR PCP: TRACE;

*WESLACO       CLOUDY    78  75  91 S6        29.70S FOG
FALFURRIAS     CLOUDY    76  71  86 S3        29.71R
6HR MIN TEMP:  76; 6HR MAX TEMP:  79;

EDINBURG         N/A     79  75  88 S6        29.70S FOG
6HR MIN TEMP:  76; 6HR MAX TEMP:  79;

*ZAPATA        CLOUDY    73  73 100 CALM      29.71S FOG
$$

TXZ213>215-236>238-242>244-246-247-251-254-255-251300-
CMAN STATIONS




USA.gov is the U.S. government's official web portal to all federal, state and local government web resources and services.